Weather in Yar-Sale

Russia / Yamalo-Nenets Autonomous Okrug     66°51′40″N   70°50′21″E
temp.,
°C
wind,
m/s
gust,
m/s
humid.,
%
clouds,
%
prec.,
mm/h
press.,
hPa
HPBL,
m
27 february, sat
sat2723:00−27ssw1110021 0.0 102220
02:00−27sw2210033 0.0 102219
05:00−27sw2210020 0.0 102319
08:00−28s111009 0.0 102219
11:00−25ssw23978 0.0 102326
14:00−24ssw239756 0.0 102322
17:00−26s239730 0.0 102319
20:00−26s349720 0.0 102223
28 february, sun
sun2823:00−26s449730 0.0 102329
02:00−26ssw45988 0.0 102244
05:00−26s459813 0.0 102249
08:00−26s559859 0.0 102265
11:00−25ssw589648 0.0 1022168
14:00−23s48940 0.0 1022197
17:00−25s569519 0.0 102281
20:00−26s569450 0.0 102184
1 march, mon
mon123:00−26ssw589455 0.0 1021115
02:00−26ssw599492 0.0 1020134
05:00−27ssw589694 0.0 1019127
08:00−27ssw61094100 0.0 1018187
11:00−25ssw71291100 0.0 1017283
14:00−23ssw7128844 0.0 1016311
17:00−23ssw7139031 0.0 1014260
20:00−23ssw612916 0.0 1012223
2 march, tue
tue223:00−23ssw7149013 0.0 1011259
02:00−23s8148983 0.0 1009288
05:00−22s9148890 0.0 1008311
08:00−21s81686100 0.0 1007344
11:00−19ssw91683100 0.0 1007431
14:00−17s91582100 0.0 1006520
17:00−16s81585100 0.0 1006496
20:00−18s81486100 0.0 1006417
3 march, wed
wed323:00−19s81489100 0.0 1006380
02:00−20s81491100 0.0 1006362
05:00−20s81492100 0.0 1006361
08:00−20s81393100 0.0 1005388
11:00−18s81491100 0.0 1005485
14:00−16s91490100 0.0 1005576
17:00−16s81391100 0.1 1005501
20:00−17s81394100 0.3 1004458